Theta_e
314 312 308 302 298 300 292 294 290 293 297 304 309 311 312 314 322 331 333 336 337 337 338 338 340 345 347 351 350 352 354 354
310 313 311 305 304 295 296 287 287 294 296 298 303 306 311 311 313 328 332 335 338 338 338 339 340 345 348 353 352 353 353 355
305 304 303 301 300 300 295 294 288 289 295 307 306 308 310 312 314 324 331 334 339 339 340 340 341 344 346 349 353 354 354 354
297 306 310 306 302 300 296 291 295 294 296 311 310 311 312 314 314 319 329 331 339 341 341 340 340 342 344 347 352 354 356 355
295 299 304 303 304 303 299 298 295 292 295 312 312 312 313 314 316 317 325 331 338 341 340 341 340 341 343 346 350 353 356 356
292 296 300 300 304 304 301 297 297 297 299 305 311 310 314 314 319 319 325 329 336 338 341 342 342 342 343 344 348 353 355 356
301 304 305 306 304 304 301 301 298 299 301 306 308 312 315 317 319 322 323 328 332 337 339 342 343 343 344 345 347 350 353 355
298 304 306 305 307 306 305 304 303 304 301 311 314 316 317 318 318 317 319 325 327 332 338 341 344 344 345 346 347 349 351 353
291 301 302 298 304 306 305 307 305 301 304 312 311 315 314 316 317 316 317 319 320 321 327 337 344 346 346 348 349 349 348 352
291 296 289 301 309 311 307 308 308 307 313 313 316 320 320 319 316 317 320 321 321 320 323 325 337 348 348 349 349 349 349 350
290 294 298 304 307 306 304 307 313 314 315 315 320 323 322 327 329 328 329 331 332 332 332 331 330 331 349 348 350 351 349 350
292 291 292 300 305 308 309 301 311 314 317 315 321 314 317 326 329 330 332 333 334 335 334 334 335 335 342 349 349 349 352 354
290 290 296 301 305 312 299 301 308 309 310 310 308 311 317 327 328 331 334 335 336 334 334 336 337 335 336 337 348 351 351 352
289 290 289 302 304 298 307 309 308 307 308 308 309 311 313 316 325 332 331 338 339 334 333 335 335 337 334 334 344 348 351 352
292 292 300 302 301 305 306 304 305 305 306 306 307 308 312 314 320 327 329 330 341 343 345 345 335 338 336 347 350 355 350 351
292 296 297 302 304 306 306 305 305 305 305 306 305 307 310 314 316 324 328 330 339 343 345 351 352 352 351 354 351 347 352 357
292 295 298 302 301 304 304 306 307 307 307 307 306 308 310 312 314 326 327 331 336 338 343 345 348 347 349 349 352 355 349 359
287 294 294 296 300 302 301 303 306 307 309 311 309 309 312 310 313 326 327 330 333 337 341 342 344 343 342 344 348 350 354 356
292 296 296 298 300 301 300 302 306 307 307 307 308 310 308 308 309 316 328 329 331 335 339 341 341 340 341 343 347 344 343 350
Wind_Speed
28 15 18 17 20 11 3 7 2 4 8 13 20 15 14 9 12 28 26 28 29 28 26 24 22 24 25 23 22 21 20 16
20 24 21 20 11 12 9 9 9 11 15 17 16 21 17 12 10 27 26 28 27 27 26 24 23 23 24 22 23 22 20 16
14 26 28 12 12 15 6 6 7 5 9 18 22 23 21 16 11 19 25 26 26 26 25 25 24 21 23 22 22 19 19 19
29 17 26 18 19 13 12 13 8 6 13 9 8 27 23 17 11 14 23 22 27 27 25 23 23 21 22 22 22 22 19 17
19 13 18 29 20 19 8 6 14 7 8 5 11 18 16 11 9 10 16 20 26 25 24 23 23 22 21 21 21 19 19 18
12 15 6 12 24 19 13 13 15 11 6 5 8 8 8 9 8 10 12 16 24 23 24 23 23 22 21 20 19 19 19 19
15 15 14 18 27 23 22 16 16 11 6 7 2 7 6 7 6 8 8 15 19 24 21 22 21 20 19 20 21 20 20 20
7 11 10 8 12 26 23 20 16 13 8 8 8 8 13 10 12 12 11 9 10 11 20 22 23 22 22 21 22 22 21 22
6 3 6 6 9 8 20 19 16 14 9 8 5 8 13 12 10 10 10 10 10 9 8 9 10 16 20 20 20 21 21 20
6 6 1 7 8 12 12 8 19 14 12 13 10 14 16 10 10 9 10 9 9 6 4 3 4 14 17 16 16 20 19 18
4 2 5 5 10 13 4 15 27 17 12 18 19 22 16 15 14 10 9 8 7 7 5 5 6 10 14 15 17 15 18 16
6 4 2 7 24 28 9 12 20 21 25 9 21 13 4 10 12 13 9 7 8 8 5 8 7 4 9 15 17 16 16 16
7 3 6 21 27 16 10 5 12 17 17 23 18 7 7 11 13 10 11 9 8 6 5 4 6 5 5 5 12 16 11 9
4 3 5 16 14 22 2 6 10 12 13 13 13 14 11 10 10 12 14 17 11 8 7 7 6 3 4 3 3 3 5 8
8 5 9 16 20 19 11 6 9 8 9 10 11 11 10 9 10 8 10 12 14 8 11 10 6 1 3 2 2 4 5 9
10 13 17 7 8 17 20 11 7 8 7 8 8 9 8 8 10 7 9 11 13 12 9 10 10 8 7 7 5 1 3 6
13 11 14 5 16 13 19 19 20 9 6 6 6 5 5 6 8 7 9 10 11 12 10 6 6 7 8 9 8 7 5 4
12 22 14 20 17 20 18 18 19 17 8 8 8 7 8 8 8 7 9 10 10 12 13 7 6 6 7 8 8 7 6 4
25 21 24 24 21 22 17 15 18 15 12 8 8 4 5 7 6 11 8 9 9 9 12 4 3 5 6 7 6 5 6 3
Wind_Direction
229 210 212 206 216 210 212 205 203 220 269 270 261 257 240 226 186 177 180 180 177 180 181 183 178 177 180 181 187 190 191 191
220 224 238 215 174 212 213 194 221 231 219 230 227 235 240 221 237 188 177 178 174 178 180 182 182 179 179 179 186 188 191 192
235 204 216 203 209 200 178 182 182 226 246 229 223 215 219 220 193 186 182 178 172 176 179 181 182 178 180 178 183 186 191 198
239 247 209 221 211 194 201 227 233 228 263 332 292 203 201 213 198 175 181 177 169 174 177 178 181 179 181 182 183 188 191 193
250 257 257 212 199 211 180 151 230 219 268 310 330 180 182 174 187 193 164 167 170 170 176 177 183 183 182 186 188 187 187 191
257 233 231 222 206 201 198 204 228 230 214 329 356 96 147 163 148 173 140 158 166 173 176 178 182 182 184 185 184 184 190 193
269 268 278 261 197 193 206 209 203 230 215 179 196 59 98 128 111 131 134 156 165 177 176 178 179 183 184 185 185 186 188 195
294 277 289 309 277 195 200 212 223 227 226 209 172 107 82 80 83 76 70 79 99 147 174 177 180 183 183 184 190 189 192 198
298 17 339 309 250 258 197 199 208 232 199 168 169 138 130 112 94 91 88 78 86 94 103 138 166 186 183 185 187 194 199 197
279 27 187 254 335 320 206 189 210 227 169 158 111 64 45 40 96 71 63 50 47 72 113 144 168 184 185 182 182 193 199 201
315 287 351 317 359 338 106 43 14 9 137 119 91 66 37 38 47 58 55 53 48 55 53 21 218 187 175 179 188 185 198 195
348 275 216 34 335 323 300 56 16 20 37 56 91 77 24 28 31 31 31 28 23 10 30 17 353 3 166 182 187 192 193 196
258 292 328 342 348 13 66 65 23 23 28 47 63 66 15 31 21 14 10 1 354 1 352 320 339 46 66 169 190 196 193 163
262 308 16 346 359 48 119 59 59 26 28 37 40 32 28 10 15 24 14 11 351 9 331 305 326 97 81 9 265 186 169 180
347 339 48 9 352 15 17 24 23 47 21 35 27 19 18 357 356 13 16 7 359 16 1 340 296 148 65 138 39 349 192 196
339 334 334 354 304 0 1 351 7 14 13 25 30 7 8 4 348 354 12 12 2 356 19 14 15 22 33 11 352 242 260 203
307 293 348 350 342 345 338 336 343 335 337 340 2 10 4 351 358 345 9 5 1 350 340 357 14 11 7 359 359 345 250 204
276 300 296 285 306 318 321 326 324 330 347 4 9 358 17 345 340 358 8 353 352 341 330 316 26 27 356 338 334 336 308 227
265 268 277 279 285 285 281 288 299 313 321 341 328 23 16 328 324 335 355 335 337 321 312 320 30 18 324 302 308 336 324 324